Location: ??????
(38.1303°N, 24.0039°E)
Time: 22:54:40
(UTC+00:00)

FENGYUN 1C DEB - Visible Passes

Search period start: 28 January 2022 00:00
Search period end: 07 February 2022 00:00
Orbit: 696 x 871 km, 99.0° (Epoch: 28 January)

Date Brightness Start Highest point End Pass type
(mag) Time Alt. Az. Time Alt. Az. Time Alt. Az.
29 Jan ? 16:29:12 10° NW 16:31:18 13° WNW 16:33:24 10° W visible
01 Feb ? 16:34:29 10° NW 16:36:08 12° WNW 16:37:48 10° W visible
04 Feb ? 16:39:52 10° NW 16:40:56 11° WNW 16:42:01 10° WNW visible
